RH
13 14 17 20 21 22 24 25 31 28 38 38 41 54 29 36 36 38 38 35 39 40 40 37 39 38 42 44 38 36 35 33 35 39 46 49 47 51 52 55 54 55 53 52
17 16 17 18 19 21 19 20 26 29 33 34 41 48 39 35 36 36 39 36 36 38 34 36 33 36 40 37 38 37 33 29 31 37 41 39 37 37 38 37 35 32 33 31
13 15 20 19 18 18 19 18 17 24 31 31 42 46 46 35 32 34 35 38 38 35 36 35 32 33 36 35 33 33 33 33 34 30 31 28 25 27 30 35 38 35 28 24
11 10 12 15 16 14 18 19 19 20 29 32 32 32 51 48 34 29 31 33 37 38 35 36 35 33 37 36 33 32 27 28 28 24 30 24 17 24 30 26 28 19 17 20
11 14 13 14 18 19 22 21 20 21 23 30 37 35 46 44 61 37 26 31 36 39 39 41 38 38 39 37 34 37 32 27 23 25 19 21 26 26 26 23 22 20 23 23
17 16 14 16 19 19 27 28 28 29 26 28 34 47 28 42 54 58 47 33 31 36 39 44 45 43 41 40 37 36 30 23 26 28 24 17 16 17 17 21 19 26 24 32
20 18 17 19 20 22 22 26 29 28 29 29 28 25 33 29 37 36 40 38 34 36 40 44 45 46 45 44 37 35 30 24 27 30 21 19 16 16 18 23 24 22 27 30
23 19 19 19 21 23 23 23 23 28 23 22 26 28 23 22 29 36 31 47 46 44 45 46 50 49 49 48 39 33 26 26 32 31 23 17 16 20 23 28 23 21 26 28
20 20 20 21 21 23 25 22 20 18 22 22 22 23 25 29 20 17 25 32 51 45 42 46 52 56 54 50 42 33 24 31 36 33 29 26 24 19 19 19 21 28 28 34
18 20 20 19 20 22 25 24 22 21 23 25 23 23 22 33 31 26 21 21 28 48 43 44 48 55 55 50 43 36 31 35 40 35 36 33 27 21 22 23 25 27 29 31
18 18 21 21 21 23 23 26 26 24 29 27 24 24 26 30 30 29 29 24 26 37 42 43 48 55 53 48 44 40 36 40 44 37 36 30 23 24 26 26 30 35 35 36
17 19 22 22 22 21 21 23 25 27 30 27 25 26 28 30 30 31 29 31 29 38 41 42 50 53 50 47 45 41 42 43 47 41 38 34 29 21 24 27 30 31 33 34
17 17 20 22 24 21 21 22 24 24 25 37 34 31 30 30 32 27 27 29 36 35 36 37 47 50 48 46 44 43 45 49 52 41 42 39 35 24 25 29 33 35 35 37
20 18 18 19 20 24 27 23 24 24 29 28 33 30 37 34 41 32 26 28 31 40 40 36 36 43 47 43 43 45 51 53 53 44 42 41 39 29 27 35 35 39 39 41
18 24 24 22 19 20 21 24 23 26 26 30 28 38 37 38 38 28 22 22 26 31 39 42 38 43 44 45 48 51 54 56 48 46 44 41 39 31 33 33 35 41 45 48
24 26 27 25 22 18 20 22 23 26 26 26 26 29 35 37 30 24 25 22 22 25 33 40 45 48 47 49 54 57 59 53 46 46 43 36 32 35 38 39 42 44 46 49
33 27 30 30 26 23 23 23 23 25 27 30 29 33 36 37 33 28 22 21 20 22 29 32 41 45 48 54 59 60 58 47 46 44 38 31 31 36 40 41 45 49 50 54
43 36 31 32 30 31 26 25 27 26 30 33 36 34 38 35 32 27 22 21 21 21 24 29 35 44 50 56 60 56 49 48 46 38 32 30 31 40 44 45 50 54 51 53
35 39 35 34 35 33 37 34 28 29 35 37 38 39 44 32 28 24 30 24 22 22 24 28 32 44 51 55 55 52 50 46 38 32 31 31 37 43 48 51 53 59 61 58
35 35 35 38 40 37 44 37 40 39 38 36 39 45 42 34 34 43 40 33 28 24 28 35 40 49 51 53 51 50 43 39 33 32 34 42 45 49 50 49 59 80 82 64
36 34 33 32 35 36 32 42 43 49 48 47 42 38 36 37 40 39 37 34 31 28 31 36 41 45 47 46 43 41 37 34 33 36 41 48 54 58 57 54 56 90 76 54
45 40 35 35 35 38 38 40 45 50 47 42 39 37 37 36 38 44 42 37 35 29 30 34 37 39 40 40 41 38 39 39 42 44 47 54 60 64 66 53 48 66 51 50
43 54 49 51 52 53 48 47 50 50 44 41 40 38 36 34 32 42 58 52 44 38 38 41 44 44 46 48 49 50 50 49 52 50 53 58 68 60 62 56 68 60 51 62
51 41 38 47 57 53 51 55 53 45 42 39 37 36 35 31 33 42 59 59 54 51 51 50 54 59 60 59 59 57 58 54 53 53 53 56 62 60 63 64 66 60 55 74
52 55 48 42 52 45 52 44 43 42 41 40 39 35 32 35 37 55 61 60 62 61 65 65 69 72 64 63 64 60 56 52 49 47 48 51 58 60 60 56 57 55 57 67
49 52 50 56 52 50 49 42 41 39 39 38 36 38 38 43 49 57 58 64 66 69 81 73 70 76 63 63 58 58 52 50 45 47 49 54 59 54 49 52 46 57 67 66